Time,TemperatureF,DewpointF,PressureIn,WindDirection,WindDirectionDegrees,WindSpeedMPH,WindSpeedGustMPH,Humidity,HourlyPrecipIn,Conditions,Clouds,dailyrainin,SoftwareType,DateUTC
2013-01-28 00:14:00,39.4,39.0,29.98,SE,124,2.0,2.0,99,0.00,,,0.00,weatherlink.com 1.10,2013-01-28 08:14:00,
2013-01-28 00:30:00,40.1,40.0,29.98,West,260,1.0,3.0,99,0.00,,,0.00,weatherlink.com 1.10,2013-01-28 08:30:00,
2013-01-28 00:44:00,40.2,40.0,29.98,WNW,284,2.0,3.0,100,0.00,,,0.00,weatherlink.com 1.10,2013-01-28 08:44:00,
2013-01-28 00:59:00,40.1,40.0,29.98,WNW,285,2.0,3.0,99,0.00,,,0.00,weatherlink.com 1.10,2013-01-28 08:59:00,
2013-01-28 01:14:00,40.2,40.0,29.98,WNW,285,2.0,4.0,99,0.00,,,0.00,weatherlink.com 1.10,2013-01-28 09:14:00,
2013-01-28 01:30:00,40.3,40.0,29.98,WNW,285,2.0,4.0,99,0.00,,,0.00,weatherlink.com 1.10,2013-01-28 09:30:00,
2013-01-28 01:44:00,40.2,40.0,29.99,WNW,285,0.0,2.0,99,0.00,,,0.00,weatherlink.com 1.10,2013-01-28 09:44:00,
2013-01-28 02:00:00,40.0,40.0,29.99,WNW,285,0.0,3.0,99,0.00,,,0.00,weatherlink.com 1.10,2013-01-28 10:00:00,
2013-01-28 02:15:00,40.2,40.0,30.00,WNW,285,2.0,4.0,99,0.00,,,0.00,weatherlink.com 1.10,2013-01-28 10:15:00,
2013-01-28 02:30:00,39.8,39.0,30.00,WNW,285,0.0,3.0,98,0.00,,,0.00,weatherlink.com 1.10,2013-01-28 10:30:00,
2013-01-28 02:45:00,39.1,39.0,30.00,WNW,285,0.0,0.0,98,0.00,,,0.00,weatherlink.com 1.10,2013-01-28 10:45:00,
2013-01-28 03:00:00,38.7,38.0,30.00,WNW,285,0.0,1.0,98,0.00,,,0.00,weatherlink.com 1.10,2013-01-28 11:00:00,
2013-01-28 03:15:00,38.7,38.0,30.00,WNW,285,1.0,2.0,98,0.00,,,0.00,weatherlink.com 1.10,2013-01-28 11:15:00,
2013-01-28 03:30:00,38.8,39.0,30.00,WNW,285,0.0,1.0,99,0.00,,,0.00,weatherlink.com 1.10,2013-01-28 11:30:00,
2013-01-28 03:45:00,38.9,39.0,30.00,WNW,285,1.0,1.0,99,0.00,,,0.00,weatherlink.com 1.10,2013-01-28 11:45:00,
2013-01-28 04:00:00,38.8,39.0,30.01,WNW,285,0.0,1.0,99,0.00,,,0.00,weatherlink.com 1.10,2013-01-28 12:00:00,
2013-01-28 04:15:00,38.7,39.0,30.01,WNW,285,0.0,1.0,99,0.00,,,0.00,weatherlink.com 1.10,2013-01-28 12:15:00,
2013-01-28 04:30:00,38.7,39.0,30.01,WNW,285,0.0,1.0,99,0.00,,,0.00,weatherlink.com 1.10,2013-01-28 12:30:00,
2013-01-28 04:45:00,38.6,38.0,30.00,WNW,285,0.0,1.0,99,0.00,,,0.00,weatherlink.com 1.10,2013-01-28 12:45:00,
2013-01-28 05:00:00,38.5,38.0,30.01,WNW,285,0.0,1.0,99,0.00,,,0.00,weatherlink.com 1.10,2013-01-28 13:00:00,
2013-01-28 05:15:00,38.4,38.0,30.01,WNW,285,0.0,1.0,99,0.00,,,0.00,weatherlink.com 1.10,2013-01-28 13:15:00,
2013-01-28 05:30:00,38.3,38.0,30.01,WNW,285,0.0,0.0,99,0.00,,,0.00,weatherlink.com 1.10,2013-01-28 13:30:00,
2013-01-28 05:45:00,38.3,38.0,30.01,WNW,285,0.0,1.0,99,0.00,,,0.00,weatherlink.com 1.10,2013-01-28 13:45:00,
2013-01-28 06:00:00,38.6,38.0,30.01,WNW,285,0.0,1.0,99,0.00,,,0.00,weatherlink.com 1.10,2013-01-28 14:00:00,
2013-01-28 06:15:00,38.6,38.0,30.02,WNW,285,0.0,0.0,99,0.00,,,0.00,weatherlink.com 1.10,2013-01-28 14:15:00,
2013-01-28 06:30:00,38.6,38.0,30.02,WNW,285,0.0,1.0,99,0.00,,,0.00,weatherlink.com 1.10,2013-01-28 14:30:00,
2013-01-28 06:45:00,38.6,38.0,30.02,WNW,285,1.0,2.0,99,0.00,,,0.00,weatherlink.com 1.10,2013-01-28 14:45:00,
2013-01-28 07:00:00,38.6,38.0,30.02,WNW,285,1.0,2.0,99,0.00,,,0.00,weatherlink.com 1.10,2013-01-28 15:00:00,
2013-01-28 07:15:00,38.6,38.0,30.02,SW,220,0.0,3.0,99,0.00,,,0.00,weatherlink.com 1.10,2013-01-28 15:15:00,
2013-01-28 07:30:00,38.6,38.0,30.02,SW,220,0.0,2.0,99,0.00,,,0.00,weatherlink.com 1.10,2013-01-28 15:30:00,
2013-01-28 07:45:00,38.6,38.0,30.02,SW,220,0.0,2.0,99,0.00,,,0.00,weatherlink.com 1.10,2013-01-28 15:45:00,
2013-01-28 08:00:00,38.5,38.0,30.02,SW,220,1.0,2.0,99,0.00,,,0.00,weatherlink.com 1.10,2013-01-28 16:00:00,
2013-01-28 08:15:00,38.4,38.0,30.02,SW,220,0.0,2.0,99,0.00,,,0.00,weatherlink.com 1.10,2013-01-28 16:15:00,
2013-01-28 08:30:00,38.3,38.0,30.02,SW,220,0.0,2.0,99,0.00,,,0.00,weatherlink.com 1.10,2013-01-28 16:30:00,
2013-01-28 08:45:00,38.4,38.0,30.01,SW,220,1.0,2.0,99,0.00,,,0.00,weatherlink.com 1.10,2013-01-28 16:45:00,
2013-01-28 09:00:00,38.6,38.0,30.02,SW,220,1.0,2.0,99,0.00,,,0.00,weatherlink.com 1.10,2013-01-28 17:00:00,
2013-01-28 09:15:00,38.8,39.0,30.02,SW,220,1.0,2.0,99,0.00,,,0.00,weatherlink.com 1.10,2013-01-28 17:15:00,
2013-01-28 09:30:00,38.8,39.0,30.02,ENE,64,1.0,4.0,99,0.00,,,0.00,weatherlink.com 1.10,2013-01-28 17:30:00,
2013-01-28 09:45:00,38.8,39.0,30.02,ENE,64,5.0,5.0,99,0.00,,,0.00,weatherlink.com 1.10,2013-01-28 17:45:00,
2013-01-28 10:00:00,38.8,39.0,30.02,ENE,64,3.0,3.0,99,0.00,,,0.00,weatherlink.com 1.10,2013-01-28 18:00:00,
2013-01-28 10:15:00,39.0,39.0,30.02,ENE,64,1.0,3.0,99,0.00,,,0.00,weatherlink.com 1.10,2013-01-28 18:15:00,
2013-01-28 10:30:00,39.2,39.0,30.02,SSW,208,1.0,3.0,99,0.00,,,0.00,weatherlink.com 1.10,2013-01-28 18:30:00,
2013-01-28 10:45:00,39.3,39.0,30.03,SSE,163,0.0,1.0,99,0.00,,,0.00,weatherlink.com 1.10,2013-01-28 18:45:00,
2013-01-28 11:00:00,39.2,39.0,30.03,SSE,158,0.0,2.0,99,0.00,,,0.00,weatherlink.com 1.10,2013-01-28 19:00:00,
2013-01-28 11:15:00,39.3,39.0,30.03,SSE,154,0.0,2.0,99,0.00,,,0.00,weatherlink.com 1.10,2013-01-28 19:15:00,
2013-01-28 11:30:00,39.3,39.0,30.03,SE,127,0.0,2.0,99,0.00,,,0.00,weatherlink.com 1.10,2013-01-28 19:30:00,
2013-01-28 11:45:00,39.3,39.0,30.03,SE,127,0.0,1.0,99,0.00,,,0.00,weatherlink.com 1.10,2013-01-28 19:45:00,
2013-01-28 12:00:00,39.2,39.0,30.02,SE,127,1.0,2.0,99,0.00,,,0.00,weatherlink.com 1.10,2013-01-28 20:00:00,
2013-01-28 12:16:00,39.2,39.0,30.02,SE,127,2.0,2.0,99,0.00,,,0.00,weatherlink.com 1.10,2013-01-28 20:16:00,
2013-01-28 12:30:00,39.3,39.0,30.01,ESE,108,3.0,3.0,99,0.00,,,0.00,weatherlink.com 1.10,2013-01-28 20:30:00,
2013-01-28 12:45:00,39.6,39.0,30.02,ESE,108,2.0,3.0,99,0.00,,,0.00,weatherlink.com 1.10,2013-01-28 20:45:00,
2013-01-28 13:00:00,39.9,40.0,30.00,ESE,108,3.0,3.0,99,0.00,,,0.00,weatherlink.com 1.10,2013-01-28 21:00:00,
2013-01-28 13:15:00,40.1,40.0,30.00,ESE,108,1.0,3.0,100,0.00,,,0.00,weatherlink.com 1.10,2013-01-28 21:15:00,
2013-01-28 13:31:00,40.3,40.0,29.99,East,90,0.0,2.0,100,0.00,,,0.00,weatherlink.com 1.10,2013-01-28 21:31:00,
2013-01-28 13:46:00,40.4,40.0,29.99,NNE,15,0.0,3.0,99,0.00,,,0.00,weatherlink.com 1.10,2013-01-28 21:46:00,
2013-01-28 14:01:00,40.6,40.0,29.97,ENE,58,1.0,2.0,99,0.00,,,0.00,weatherlink.com 1.10,2013-01-28 22:01:00,
2013-01-28 14:16:00,40.9,41.0,29.97,NNE,29,0.0,3.0,100,0.00,,,0.00,weatherlink.com 1.10,2013-01-28 22:16:00,
2013-01-28 14:30:00,41.2,41.0,29.97,NNE,29,0.0,3.0,100,0.00,,,0.00,weatherlink.com 1.10,2013-01-28 22:30:00,
2013-01-28 14:45:00,41.2,41.0,29.98,NNE,29,0.0,2.0,100,0.00,,,0.00,weatherlink.com 1.10,2013-01-28 22:45:00,
2013-01-28 15:01:00,41.3,41.0,29.97,SSW,210,1.0,2.0,100,0.00,,,0.00,weatherlink.com 1.10,2013-01-28 23:01:00,
2013-01-28 15:15:00,41.3,41.0,29.97,East,94,0.0,2.0,100,0.00,,,0.00,weatherlink.com 1.10,2013-01-28 23:15:00,
2013-01-28 15:30:00,41.4,41.0,29.96,SSE,161,0.0,3.0,100,0.00,,,0.00,weatherlink.com 1.10,2013-01-28 23:30:00,
2013-01-28 15:46:00,41.4,41.0,29.96,East,100,1.0,3.0,100,0.00,,,0.00,weatherlink.com 1.10,2013-01-28 23:46:00,
2013-01-28 16:00:00,41.3,41.0,29.96,South,186,0.0,2.0,100,0.00,,,0.00,weatherlink.com 1.10,2013-01-29 00:00:00,
2013-01-28 16:15:00,41.3,41.0,29.96,South,187,0.0,2.0,100,0.00,,,0.00,weatherlink.com 1.10,2013-01-29 00:15:00,
2013-01-28 16:30:00,41.3,41.0,29.97,South,187,0.0,2.0,100,0.00,,,0.00,weatherlink.com 1.10,2013-01-29 00:30:00,
2013-01-28 16:45:00,41.2,41.0,29.97,South,187,0.0,2.0,99,0.00,,,0.00,weatherlink.com 1.10,2013-01-29 00:45:00,
2013-01-28 17:00:00,41.1,41.0,29.97,South,187,0.0,1.0,99,0.00,,,0.00,weatherlink.com 1.10,2013-01-29 01:00:00,
2013-01-28 17:15:00,41.0,41.0,29.98,South,187,0.0,1.0,99,0.00,,,0.00,weatherlink.com 1.10,2013-01-29 01:15:00,
2013-01-28 17:30:00,40.9,41.0,29.98,South,187,1.0,2.0,100,0.00,,,0.00,weatherlink.com 1.10,2013-01-29 01:30:00,
2013-01-28 17:45:00,40.6,40.0,29.99,South,187,0.0,2.0,99,0.00,,,0.00,weatherlink.com 1.10,2013-01-29 01:45:00,
2013-01-28 18:00:00,40.4,40.0,29.98,South,187,1.0,3.0,99,0.00,,,0.00,weatherlink.com 1.10,2013-01-29 02:00:00,
2013-01-28 18:16:00,40.4,40.0,29.99,South,187,0.0,2.0,99,0.00,,,0.00,weatherlink.com 1.10,2013-01-29 02:16:00,
2013-01-28 18:30:00,40.6,40.0,29.99,South,187,1.0,2.0,99,0.00,,,0.00,weatherlink.com 1.10,2013-01-29 02:30:00,
2013-01-28 18:46:00,40.7,41.0,29.99,South,187,0.0,2.0,99,0.00,,,0.00,weatherlink.com 1.10,2013-01-29 02:46:00,
2013-01-28 19:01:00,40.7,41.0,29.99,South,187,1.0,2.0,99,0.00,,,0.00,weatherlink.com 1.10,2013-01-29 03:01:00,
2013-01-28 19:16:00,40.6,40.0,29.99,South,187,1.0,2.0,99,0.00,,,0.00,weatherlink.com 1.10,2013-01-29 03:16:00,
2013-01-28 19:31:00,40.7,41.0,29.99,South,187,0.0,2.0,99,0.00,,,0.00,weatherlink.com 1.10,2013-01-29 03:31:00,
2013-01-28 19:46:00,40.5,40.0,29.99,South,187,0.0,2.0,99,0.00,,,0.00,weatherlink.com 1.10,2013-01-29 03:46:00,
2013-01-28 20:01:00,40.3,40.0,30.00,South,187,0.0,2.0,100,0.00,,,0.00,weatherlink.com 1.10,2013-01-29 04:01:00,
2013-01-28 20:16:00,40.4,40.0,30.00,South,187,0.0,1.0,100,0.00,,,0.00,weatherlink.com 1.10,2013-01-29 04:16:00,
2013-01-28 20:31:00,40.4,40.0,30.00,South,187,0.0,2.0,100,0.00,,,0.00,weatherlink.com 1.10,2013-01-29 04:31:00,
2013-01-28 20:46:00,40.4,40.0,30.00,South,187,0.0,1.0,99,0.00,,,0.00,weatherlink.com 1.10,2013-01-29 04:46:00,
2013-01-28 21:16:00,40.4,40.0,30.01,South,187,0.0,1.0,99,0.00,,,0.00,weatherlink.com 1.10,2013-01-29 05:16:00,
2013-01-28 21:31:00,40.4,40.0,30.01,South,187,1.0,2.0,99,0.00,,,0.00,weatherlink.com 1.10,2013-01-29 05:31:00,
2013-01-28 21:46:00,40.4,40.0,30.02,South,187,0.0,1.0,99,0.00,,,0.00,weatherlink.com 1.10,2013-01-29 05:46:00,
2013-01-28 22:01:00,40.4,40.0,30.02,South,187,0.0,0.0,99,0.00,,,0.00,weatherlink.com 1.10,2013-01-29 06:01:00,
2013-01-28 22:16:00,40.5,40.0,30.02,South,187,0.0,1.0,99,0.00,,,0.00,weatherlink.com 1.10,2013-01-29 06:16:00,
2013-01-28 22:31:00,40.5,40.0,30.02,South,187,0.0,1.0,99,0.00,,,0.00,weatherlink.com 1.10,2013-01-29 06:31:00,
2013-01-28 22:46:00,40.5,40.0,30.02,South,187,0.0,2.0,99,0.00,,,0.00,weatherlink.com 1.10,2013-01-29 06:46:00,
2013-01-28 23:01:00,40.6,40.0,30.03,South,187,0.0,0.0,99,0.00,,,0.00,weatherlink.com 1.10,2013-01-29 07:01:00,
2013-01-28 23:16:00,40.6,40.0,30.04,South,187,0.0,1.0,99,0.00,,,0.00,weatherlink.com 1.10,2013-01-29 07:16:00,
2013-01-28 23:31:00,40.8,41.0,30.04,South,187,0.0,1.0,100,0.00,,,0.00,weatherlink.com 1.10,2013-01-29 07:31:00,
2013-01-28 23:46:00,40.7,41.0,30.04,South,187,0.0,1.0,99,0.00,,,0.00,weatherlink.com 1.10,2013-01-29 07:46:00,